period_start,C,m1,H,J0,J1,J2,J3,J4,J5,JA,JB,JC,JD,JJ,JK,JN,#
2017-05-12 00:03:38,0.14,2.56,0.00,23.44,26.73,30.27,14.79,49.69,1027.38,2030.93,2547.20,2457.01,2805.98,600.57,602.07,49.91,0000 0000 0000 0000 000000
2017-05-12 00:08:39,0.12,2.57,0.00,23.42,26.76,30.16,14.60,49.63,1027.37,2030.82,2545.01,2455.43,2804.16,599.83,601.23,49.96,0000 0000 0000 0000 000000
2017-05-12 00:13:40,0.05,2.57,0.00,23.74,26.79,30.25,14.65,49.54,1027.36,2030.29,2543.39,2454.14,2802.72,599.86,600.57,50.01,0000 0000 0000 0000 000000
2017-05-12 00:18:41,0.09,2.58,0.00,23.87,26.82,30.35,14.68,49.63,1027.36,2030.08,2541.74,2452.99,2801.45,600.08,600.59,50.06,0000 0000 0000 0000 000000
2017-05-12 00:23:43,0.07,2.58,0.00,23.98,26.85,30.35,14.57,49.53,1027.32,2030.02,2540.72,2452.07,2800.50,599.99,600.34,50.11,0000 0000 0000 0000 000000
2017-05-12 00:28:44,0.05,2.58,0.00,24.01,26.87,30.34,14.60,49.57,1027.36,2030.01,2539.89,2451.46,2799.83,600.12,600.34,50.16,0000 0000 0000 0000 000000
2017-05-12 00:33:46,0.04,2.59,0.00,24.07,26.90,30.36,14.54,49.56,1027.37,2030.00,2539.00,2450.92,2799.02,599.97,600.14,50.21,0000 0000 0000 0000 000000
2017-05-12 00:38:47,0.07,2.59,0.00,24.10,26.91,30.35,14.61,49.53,1027.36,2030.00,2538.10,2450.14,2798.23,600.00,600.06,50.26,0000 0000 0000 0000 000000
2017-05-12 00:43:48,0.03,2.59,0.00,24.12,26.92,30.34,14.59,49.62,1027.36,2030.00,2537.34,2449.89,2797.89,599.79,599.96,50.31,0000 0000 0000 0000 000000
2017-05-12 00:48:49,0.04,2.60,0.00,24.14,26.94,30.33,14.69,49.60,1027.36,2029.99,2536.91,2449.15,2797.10,600.14,600.48,50.37,0000 0000 0000 0000 000000
2017-05-12 00:53:51,0.02,2.60,0.00,24.22,26.95,30.33,14.59,49.58,1027.36,2029.98,2536.08,2449.00,2796.94,600.17,600.03,50.42,0000 0000 0000 0000 000000
2017-05-12 00:58:52,0.03,2.60,0.00,24.25,26.95,30.34,14.60,49.67,1027.27,2029.98,2535.89,2448.65,2796.26,600.06,599.69,50.47,0000 0000 0000 0000 000000
2017-05-12 01:03:53,0.04,2.60,0.00,24.26,26.95,30.35,14.71,49.63,1026.91,2029.97,2535.05,2448.04,2795.99,600.32,599.73,50.52,0000 0000 0000 0000 000000
2017-05-12 01:08:54,0.04,2.60,0.00,24.16,26.95,30.40,14.59,49.56,1026.88,2029.95,2534.31,2447.89,2795.43,599.98,599.50,50.57,0000 0000 0000 0000 000000
2017-05-12 01:13:55,0.04,2.61,0.00,24.12,26.95,30.46,14.60,49.62,1026.89,2029.91,2533.70,2447.11,2794.98,599.83,599.61,50.62,0000 0000 0000 0000 000000
2017-05-12 01:18:57,0.03,2.61,0.00,24.13,26.96,30.36,14.49,49.60,1026.96,2029.94,2533.02,2446.99,2794.29,599.85,599.55,50.67,0000 0000 0000 0000 000000
2017-05-12 01:23:58,0.04,2.61,0.00,24.14,26.97,30.33,14.56,49.64,1026.89,2029.94,2532.59,2446.36,2794.00,599.71,599.31,50.72,0000 0000 0000 0000 000000
2017-05-12 01:28:59,0.01,2.61,0.00,24.27,26.97,30.36,14.56,49.52,1026.88,2029.89,2532.01,2446.00,2793.56,599.82,599.43,50.77,0000 0000 0000 0000 000000
2017-05-12 01:34:00,0.03,2.61,0.00,24.32,26.99,30.36,14.53,49.67,1026.89,2029.66,2531.24,2445.52,2792.99,600.01,599.38,50.82,0000 0000 0000 0000 000000
2017-05-12 01:39:02,0.03,2.61,0.00,24.37,27.00,30.37,14.59,49.67,1026.89,2029.53,2530.65,2445.01,2792.24,600.19,599.39,50.87,0000 0000 0000 0000 000000
2017-05-12 01:44:03,0.03,2.62,0.00,24.38,27.01,30.36,14.62,49.72,1026.88,2029.43,2529.81,2444.50,2791.91,600.38,599.57,50.92,0000 0000 0000 0000 000000
2017-05-12 01:49:05,0.05,2.62,0.00,24.42,27.02,30.38,14.63,49.69,1026.89,2029.44,2529.04,2444.01,2791.11,600.22,599.42,50.97,0000 0000 0000 0000 000000
2017-05-12 01:54:06,0.04,2.62,0.00,24.44,27.03,30.34,14.60,49.73,1026.87,2029.32,2528.28,2443.52,2790.67,600.31,599.44,51.02,0000 0000 0000 0000 000000
2017-05-12 01:59:07,0.01,2.62,0.00,24.45,27.05,30.35,14.46,49.69,1026.87,2029.16,2527.74,2443.00,2790.01,599.80,599.09,51.07,0000 0000 0000 0000 000000
2017-05-12 02:04:08,0.06,2.62,0.00,24.47,27.05,30.33,14.55,49.72,1026.86,2029.17,2527.01,2442.54,2789.43,599.91,598.98,51.12,0000 0000 0000 0000 000000
2017-05-12 02:09:09,0.03,2.63,0.00,24.48,27.06,30.34,14.48,49.71,1026.80,2029.13,2526.33,2442.02,2788.99,600.00,599.04,51.17,0000 0000 0000 0000 000000
2017-05-12 02:14:11,0.05,2.63,0.00,24.51,27.07,30.36,14.53,49.89,1026.49,2029.04,2525.66,2441.44,2788.22,600.06,598.97,51.23,0000 0000 0000 0000 000000
2017-05-12 02:19:12,0.02,2.63,0.00,24.49,27.08,30.37,14.49,49.78,1026.40,2029.01,2525.00,2441.00,2787.85,599.81,598.52,51.28,0000 0000 0000 0000 000000
2017-05-12 02:24:13,0.06,2.63,0.00,24.46,27.10,30.39,14.52,49.86,1026.38,2029.00,2524.24,2440.51,2787.08,599.83,598.64,51.33,0000 0000 0000 0000 000000
2017-05-12 02:29:15,0.04,2.63,0.00,24.51,27.10,30.36,14.60,49.73,1026.38,2029.00,2523.48,2439.97,2786.50,600.27,598.90,51.38,0000 0000 0000 0000 000000
2017-05-12 02:34:16,0.05,2.64,0.00,24.49,27.11,30.30,14.57,49.60,1026.38,2029.00,2522.71,2439.36,2785.99,600.34,599.12,51.43,0000 0000 0000 0000 000000
2017-05-12 02:39:17,0.03,2.64,0.00,24.49,27.12,30.33,14.60,49.60,1026.38,2029.00,2522.01,2438.99,2785.29,600.11,598.99,51.48,0000 0000 0000 0000 000000
2017-05-12 02:44:19,0.06,2.64,0.00,24.48,27.12,30.34,14.54,49.81,1026.38,2029.00,2521.20,2438.31,2784.85,599.92,598.64,51.53,0000 0000 0000 0000 000000
2017-05-12 02:49:20,0.04,2.65,0.00,24.44,27.15,30.35,14.54,49.90,1026.39,2029.00,2520.50,2437.94,2784.07,600.04,598.82,51.58,0000 0000 0000 0000 000000
2017-05-12 02:54:22,0.06,2.65,0.00,24.48,27.15,30.32,14.53,49.72,1026.38,2029.00,2519.72,2437.16,2783.62,600.27,598.98,51.63,0000 0000 0000 0000 000000
2017-05-12 02:59:23,0.02,2.65,0.00,24.46,27.16,30.35,14.47,49.88,1026.39,2029.00,2519.02,2436.96,2783.00,599.60,598.43,51.68,0000 0000 0000 0000 000000
2017-05-12 03:04:24,0.07,2.65,0.00,24.48,27.17,30.40,14.54,49.79,1026.39,2028.99,2518.29,2436.18,2782.28,600.15,598.94,51.73,0000 0000 0000 0000 000000
2017-05-12 03:09:25,0.02,2.65,0.00,24.46,27.18,30.36,14.55,49.82,1026.38,2028.98,2517.71,2435.96,2781.94,599.98,598.75,51.78,0000 0000 0000 0000 000000
2017-05-12 03:14:27,0.06,2.66,0.00,24.53,27.20,30.32,14.50,49.76,1026.37,2028.97,2516.97,2435.19,2781.13,599.78,598.44,51.83,0000 0000 0000 0000 000000
2017-05-12 03:19:28,0.03,2.66,0.00,24.51,27.20,30.31,14.50,49.85,1026.28,2028.95,2516.11,2434.94,2780.69,599.99,598.48,51.88,0000 0000 0000 0000 000000
2017-05-12 03:24:29,0.06,2.66,0.00,24.50,27.20,30.29,14.55,49.67,1026.26,2028.95,2515.36,2434.19,2780.03,599.99,598.60,51.93,0000 0000 0000 0000 000000
2017-05-12 03:29:30,0.03,2.66,0.00,24.41,27.20,30.29,14.48,49.77,1025.95,2028.94,2514.68,2433.93,2779.50,599.92,598.60,51.98,0000 0000 0000 0000 000000
2017-05-12 03:34:32,0.04,2.67,0.00,24.36,27.20,30.30,14.52,49.77,1025.92,2028.87,2514.03,2433.17,2779.00,599.92,598.75,52.03,0000 0000 0000 0000 000000
2017-05-12 03:39:33,0.03,2.67,0.00,24.52,27.20,30.29,14.54,49.89,1025.91,2028.87,2513.55,2433.00,2778.63,600.35,598.72,52.08,0000 0000 0000 0000 000000
2017-05-12 03:44:34,0.03,2.67,0.00,24.46,27.20,30.29,14.47,49.77,1025.90,2028.77,2512.96,2432.59,2778.02,600.05,598.55,52.13,0000 0000 0000 0000 000000
2017-05-12 03:49:35,0.03,2.67,0.00,24.33,27.20,30.29,14.56,49.88,1025.85,2028.69,2512.16,2432.02,2777.73,600.37,599.13,52.19,0000 0000 0000 0000 000000
2017-05-12 03:54:36,0.02,2.67,0.00,24.33,27.20,30.27,14.47,49.86,1025.50,2028.73,2511.84,2431.98,2777.06,599.61,598.21,52.24,0000 0000 0000 0000 000000
2017-05-12 03:59:37,0.05,2.67,0.00,24.32,27.19,30.28,14.54,49.76,1025.60,2028.72,2511.08,2431.43,2776.93,599.77,598.44,52.29,0000 0000 0000 0000 000000
2017-05-12 04:04:38,0.05,2.68,0.00,24.28,27.17,30.26,14.53,49.74,1025.86,2028.82,2510.51,2431.01,2776.17,600.28,598.98,52.34,0000 0000 0000 0000 000000
2017-05-12 04:09:39,0.01,2.68,0.00,24.25,27.17,30.26,14.56,49.67,1025.87,2028.92,2510.00,2430.99,2776.00,600.04,599.09,52.39,0000 0000 0000 0000 000000
2017-05-12 04:14:41,0.06,2.68,0.00,24.41,27.15,30.25,14.46,49.65,1025.88,2028.97,2509.40,2430.49,2775.72,599.92,598.54,52.44,0000 0000 0000 0000 000000
2017-05-12 04:19:42,0.02,2.68,0.00,24.32,27.15,30.24,14.58,49.59,1025.73,2028.98,2508.92,2430.02,2775.04,600.46,599.03,52.49,0000 0000 0000 0000 000000
2017-05-12 04:24:44,0.03,2.69,0.00,24.27,27.13,30.23,14.56,49.75,1025.50,2028.97,2508.10,2429.93,2774.85,600.03,598.61,52.54,0000 0000 0000 0000 000000
2017-05-12 04:29:45,0.06,2.69,0.00,24.22,27.12,30.23,14.53,49.82,1025.41,2028.99,2507.64,2429.22,2774.12,600.06,598.92,52.59,0000 0000 0000 0000 000000
2017-05-12 04:34:47,0.01,2.69,0.00,24.23,27.11,30.22,14.52,49.64,1025.43,2028.99,2506.98,2428.99,2773.98,599.82,598.51,52.64,0000 0000 0000 0000 000000
2017-05-12 04:39:48,0.05,2.69,0.00,24.23,27.10,30.22,14.60,49.55,1025.48,2028.99,2506.23,2428.73,2773.35,600.10,598.77,52.69,0000 0000 0000 0000 000000
2017-05-12 04:44:49,0.02,2.69,0.00,24.23,27.10,30.23,14.55,49.76,1025.42,2028.99,2506.00,2428.07,2773.01,599.94,598.64,52.74,0000 0000 0000 0000 000000
2017-05-12 04:49:51,0.02,2.69,0.00,24.26,27.10,30.24,14.49,49.83,1025.42,2028.99,2505.40,2428.00,2772.89,599.68,598.34,52.79,0000 0000 0000 0000 000000
2017-05-12 04:54:52,0.04,2.70,0.00,24.25,27.08,30.24,14.60,49.89,1025.41,2028.99,2504.98,2427.73,2772.11,600.15,598.80,52.84,0000 0000 0000 0000 000000
2017-05-12 04:59:54,0.03,2.70,0.00,24.26,27.08,30.21,14.53,49.73,1025.40,2028.99,2504.44,2427.05,2772.00,600.04,598.74,52.89,0000 0000 0000 0000 000000
2017-05-12 05:04:55,0.01,2.70,0.00,24.18,27.08,30.18,14.61,50.03,1025.40,2028.99,2504.02,2427.00,2771.77,600.35,599.15,52.94,0000 0000 0000 0000 000000
2017-05-12 05:09:56,0.02,2.70,0.00,24.11,27.07,30.17,14.69,49.83,1025.40,2028.99,2503.83,2426.84,2771.05,600.34,599.34,52.99,0000 0000 0000 0000 000000
2017-05-12 05:14:58,0.04,2.70,0.00,24.20,27.07,30.16,14.55,49.84,1025.40,2028.99,2503.13,2426.17,2771.00,599.97,598.66,53.04,0000 0000 0000 0000 000000
2017-05-12 05:19:59,0.00,2.70,0.00,24.29,27.07,30.15,14.56,49.92,1025.37,2028.99,2502.99,2426.00,2770.83,600.37,598.75,53.10,0000 0000 0000 0000 000000
2017-05-12 05:25:00,0.03,2.71,0.00,24.18,27.07,30.16,14.52,49.69,1025.30,2029.00,2502.53,2425.98,2770.10,599.94,598.73,53.15,0000 0000 0000 0000 000000
2017-05-12 05:30:01,0.03,2.71,0.00,24.26,27.07,30.17,14.54,49.88,1025.23,2029.00,2502.00,2425.56,2770.00,599.92,598.47,53.20,0000 0000 0000 0000 000000
2017-05-12 05:35:02,0.03,2.71,0.00,24.23,27.07,30.15,14.55,49.73,1025.10,2029.00,2501.64,2425.06,2769.88,600.15,598.65,53.25,0000 0000 0000 0000 000000
2017-05-12 05:40:04,0.02,2.71,0.00,24.17,27.07,30.14,14.55,49.67,1025.01,2029.00,2501.02,2424.99,2769.11,599.98,598.44,53.30,0000 0000 0000 0000 000000
2017-05-12 05:45:05,0.00,2.71,0.00,24.21,27.06,30.14,14.56,49.73,1025.07,2029.01,2500.94,2424.95,2769.00,600.19,598.69,53.35,0000 0000 0000 0000 000000
2017-05-12 05:50:06,0.05,2.71,0.00,24.18,27.05,30.14,14.61,49.98,1024.97,2029.02,2500.15,2424.27,2768.91,600.02,598.56,53.40,0000 0000 0000 0000 000000
2017-05-12 05:55:07,0.02,2.71,0.00,24.25,27.05,30.15,14.53,49.83,1024.94,2029.01,2499.90,2424.01,2768.17,599.65,598.03,53.45,0000 0000 0000 0000 000000
2017-05-12 06:00:08,0.02,2.72,0.00,24.25,27.05,30.14,14.59,49.85,1024.95,2029.01,2499.15,2423.99,2768.00,600.63,599.01,53.50,0000 0000 0000 0000 000000
2017-05-12 06:05:09,0.01,2.72,0.00,24.23,27.05,30.14,14.47,49.80,1024.93,2029.02,2498.96,2423.72,2767.92,599.68,598.12,53.55,0000 0000 0000 0000 000000
2017-05-12 06:10:10,0.05,2.72,0.00,24.21,27.05,30.14,14.64,49.67,1024.92,2029.03,2498.31,2423.09,2767.33,600.42,598.87,53.60,0000 0000 0000 0000 000000
2017-05-12 06:15:12,0.00,2.72,0.00,24.29,27.05,30.15,14.47,49.74,1024.92,2029.01,2497.98,2422.99,2767.01,599.31,597.67,53.65,0000 0000 0000 0000 000000
2017-05-12 06:20:13,0.04,2.72,0.00,24.29,27.05,30.16,14.49,49.73,1024.92,2029.02,2497.50,2422.77,2766.85,599.79,598.00,53.70,0000 0000 0000 0000 000000
2017-05-12 06:25:14,0.04,2.72,0.00,24.28,27.05,30.16,14.63,49.83,1024.92,2029.01,2496.98,2422.07,2766.10,600.21,598.38,53.75,0000 0000 0000 0000 000000
2017-05-12 06:30:16,0.02,2.73,0.00,24.28,27.05,30.16,14.53,49.83,1024.92,2029.03,2496.25,2421.99,2765.97,599.81,598.18,53.80,0000 0000 0000 0000 000000
2017-05-12 06:35:17,0.03,2.73,0.00,24.32,27.05,30.18,14.51,49.76,1024.92,2029.04,2496.00,2421.83,2765.51,599.94,598.17,53.85,0000 0000 0000 0000 000000
2017-05-12 06:40:18,0.04,2.73,0.00,24.33,27.05,30.16,14.48,49.76,1024.92,2029.02,2495.42,2421.11,2765.02,599.95,598.09,53.90,0000 0000 0000 0000 000000
2017-05-12 06:45:20,0.01,2.73,0.00,24.35,27.07,30.18,14.58,49.84,1024.92,2029.02,2495.00,2420.97,2764.74,599.92,598.05,53.95,0000 0000 0000 0000 000000
2017-05-12 06:50:21,0.06,2.73,0.00,24.37,27.07,30.19,14.56,49.88,1024.92,2029.02,2494.35,2420.33,2764.04,599.90,598.02,54.00,0000 0000 0000 0000 000000
2017-05-12 06:55:22,0.00,2.73,0.00,24.38,27.09,30.20,14.56,49.91,1024.92,2029.01,2493.98,2420.01,2763.97,600.16,598.16,54.06,0000 0000 0000 0000 000000
2017-05-12 07:00:23,0.04,2.74,0.00,24.40,27.10,30.20,14.52,49.88,1024.92,2029.01,2493.39,2419.90,2763.32,600.12,598.26,54.11,0000 0000 0000 0000 000000
2017-05-12 07:05:25,0.03,2.74,0.00,24.41,27.11,30.20,14.57,49.92,1024.92,2029.01,2492.98,2419.13,2762.99,600.08,598.20,54.16,0000 0000 0000 0000 000000
2017-05-12 07:10:26,0.03,2.74,0.00,24.46,27.13,30.21,14.54,49.73,1024.92,2029.00,2492.33,2418.99,2762.50,599.97,597.91,54.21,0000 0000 0000 0000 000000
2017-05-12 07:15:27,0.03,2.74,0.00,24.50,27.15,30.21,14.46,49.91,1024.92,2029.00,2491.98,2418.50,2762.01,599.67,597.76,54.26,0000 0000 0000 0000 000000
2017-05-12 07:20:28,0.04,2.74,0.00,24.52,27.17,30.21,14.46,49.86,1024.92,2029.00,2491.33,2418.01,2761.53,599.75,597.45,54.31,0000 0000 0000 0000 000000
2017-05-12 07:25:30,0.01,2.74,0.00,24.53,27.18,30.23,14.54,49.98,1024.94,2029.00,2490.97,2417.84,2761.01,600.06,597.85,54.36,0000 0000 0000 0000 000000
2017-05-12 07:30:31,0.05,2.75,0.00,24.57,27.20,30.23,14.59,49.97,1024.92,2028.99,2490.25,2417.11,2760.75,600.34,598.10,54.41,0000 0000 0000 0000 000000
2017-05-12 07:35:32,0.01,2.75,0.00,24.59,27.22,30.23,14.52,50.00,1024.94,2028.98,2489.91,2416.98,2760.04,599.85,597.53,54.46,0000 0000 0000 0000 000000
2017-05-12 07:40:34,0.06,2.75,0.00,24.62,27.24,30.23,14.51,49.97,1024.93,2028.97,2489.11,2416.36,2759.78,600.03,597.56,54.51,0000 0000 0000 0000 000000
2017-05-12 07:45:35,0.02,2.75,0.00,24.63,27.26,30.25,14.50,49.88,1024.93,2028.90,2488.69,2416.00,2759.04,600.07,597.66,54.56,0000 0000 0000 0000 000000
2017-05-12 07:50:36,0.01,2.75,0.00,24.65,27.28,30.23,14.53,49.88,1024.93,2028.77,2488.03,2415.75,2758.81,600.00,597.47,54.61,0000 0000 0000 0000 000000
2017-05-12 07:55:38,0.03,2.76,0.00,24.67,27.30,30.23,14.40,49.81,1024.93,2028.52,2487.50,2415.04,2758.06,600.06,597.67,54.66,0000 0000 0000 0000 000000
2017-05-12 08:00:39,0.03,2.76,0.00,24.70,27.32,30.24,14.53,49.94,1024.93,2028.19,2486.68,2414.59,2757.54,600.23,597.58,54.71,0000 0000 0000 0000 000000
2017-05-12 08:05:40,0.02,2.76,0.00,24.73,27.33,30.26,14.47,49.79,1024.92,2028.04,2485.89,2414.01,2756.99,599.94,597.47,54.76,0000 0000 0000 0000 000000
2017-05-12 08:10:42,0.06,2.76,0.00,24.77,27.35,30.26,14.55,49.92,1024.92,2028.01,2485.07,2413.48,2756.28,600.20,597.60,54.81,0000 0000 0000 0000 000000
2017-05-12 08:15:43,0.03,2.76,0.00,24.80,27.37,30.30,14.51,49.99,1024.93,2028.00,2484.34,2413.01,2755.76,600.13,597.34,54.86,0000 0000 0000 0000 000000
2017-05-12 08:20:44,0.05,2.76,0.00,24.81,27.38,30.33,14.52,49.78,1024.92,2028.00,2483.75,2412.37,2755.04,599.81,596.98,54.91,0000 0000 0000 0000 000000
2017-05-12 08:25:46,0.03,2.77,0.00,24.80,27.40,30.31,14.57,49.85,1024.92,2028.00,2482.96,2411.99,2754.58,600.18,597.50,54.96,0000 0000 0000 0000 000000
2017-05-12 08:30:47,0.06,2.77,0.00,24.83,27.42,30.34,14.55,49.86,1024.92,2028.00,2482.09,2411.30,2753.94,600.08,597.33,55.02,0000 0000 0000 0000 000000
2017-05-12 08:35:48,0.06,2.77,0.00,24.83,27.43,30.36,14.63,49.92,1024.93,2028.00,2481.16,2410.71,2753.09,600.61,597.69,55.07,0000 0000 0000 0000 000000
2017-05-12 08:40:50,0.09,2.78,0.00,24.86,27.45,30.35,14.49,49.88,1024.93,2027.98,2479.86,2409.78,2752.12,599.89,597.09,55.12,0000 0000 0000 0000 000000
2017-05-12 08:45:51,0.11,2.78,0.00,24.84,27.47,30.39,14.41,49.88,1024.92,2027.93,2478.18,2408.67,2750.99,599.71,597.00,55.17,0000 0000 0000 0000 000000
2017-05-12 08:50:52,0.07,2.79,0.00,24.82,27.48,30.40,14.51,49.83,1024.92,2027.84,2476.69,2407.77,2749.98,600.13,597.36,55.22,0000 0000 0000 0000 000000
2017-05-12 08:55:54,0.06,2.79,0.00,24.82,27.50,30.43,14.41,49.73,1024.92,2027.68,2475.56,2406.89,2749.03,599.54,596.84,55.27,0000 0000 0000 0000 000000
2017-05-12 09:00:55,0.03,2.79,0.00,24.82,27.51,30.40,14.50,49.75,1024.92,2027.29,2474.33,2406.00,2748.03,600.06,597.31,55.32,0000 0000 0000 0000 000000
2017-05-12 09:05:57,0.09,2.80,0.00,24.85,27.52,30.40,14.42,49.84,1024.92,2027.06,2472.88,2405.02,2746.88,599.69,597.04,55.37,0000 0000 0000 0000 000000
2017-05-12 09:10:58,0.09,2.80,0.00,24.81,27.55,30.43,14.55,49.82,1024.92,2027.05,2471.45,2404.05,2745.85,600.11,597.28,55.42,0000 0000 0000 0000 000000
2017-05-12 09:15:59,0.10,2.81,0.00,24.81,27.55,30.42,14.55,49.83,1024.92,2027.03,2469.97,2403.08,2744.73,600.12,597.50,55.47,0000 0000 0000 0000 000000
2017-05-12 09:21:00,0.09,2.81,0.00,24.81,27.57,30.42,14.45,49.82,1024.92,2027.01,2468.51,2402.07,2743.65,599.95,597.14,55.52,0000 0000 0000 0000 000000
2017-05-12 09:26:02,0.09,2.82,0.00,24.80,27.58,30.43,14.43,49.74,1024.92,2027.00,2467.10,2401.10,2742.57,599.85,597.22,55.57,0000 0000 0000 0000 000000
2017-05-12 09:31:03,0.09,2.82,0.00,24.79,27.60,30.45,14.61,49.88,1024.92,2027.00,2465.73,2400.13,2741.51,600.16,597.48,55.62,0000 0000 0000 0000 000000
2017-05-12 09:36:05,0.09,2.83,0.00,24.78,27.60,30.45,14.50,49.88,1024.91,2027.00,2464.21,2399.22,2740.39,599.66,596.87,55.67,0000 0000 0000 0000 000000
2017-05-12 09:41:06,0.09,2.83,0.00,24.78,27.60,30.45,14.47,49.78,1024.90,2026.99,2462.89,2398.25,2739.37,599.92,597.23,55.72,0000 0000 0000 0000 000000
2017-05-12 09:46:07,0.06,2.83,0.00,24.80,27.60,30.46,14.50,49.76,1024.91,2026.99,2461.72,2397.72,2738.67,599.91,597.24,55.77,0000 0000 0000 0000 000000
2017-05-12 09:51:08,0.05,2.84,0.00,24.80,27.61,30.45,14.40,49.55,1024.90,2026.99,2460.75,2397.01,2737.95,599.99,597.35,55.82,0000 0000 0000 0000 000000
2017-05-12 09:56:10,0.08,2.84,0.00,24.78,27.61,30.51,14.48,49.68,1024.85,2026.99,2459.71,2396.31,2737.11,599.77,597.16,55.88,0000 0000 0000 0000 000000
2017-05-12 10:01:11,0.08,2.84,0.00,24.77,27.61,30.53,14.52,49.67,1024.88,2026.99,2458.34,2395.50,2736.28,600.03,597.34,55.93,0000 0000 0000 0000 000000
2017-05-12 10:06:12,0.06,2.85,0.00,24.79,27.61,30.56,14.45,49.67,1024.72,2026.99,2457.15,2394.78,2735.26,599.90,597.10,55.98,0000 0000 0000 0000 000000
2017-05-12 10:11:14,0.06,2.85,0.00,24.79,27.60,30.58,14.38,49.68,1024.76,2026.99,2456.26,2394.03,2734.56,599.59,596.76,56.03,0000 0000 0000 0000 000000
2017-05-12 10:16:15,0.06,2.86,0.00,24.80,27.60,30.60,14.49,49.77,1024.67,2026.98,2455.31,2393.37,2733.87,600.24,597.37,56.08,0000 0000 0000 0000 000000
2017-05-12 10:21:16,0.07,2.86,0.00,24.79,27.60,30.60,14.44,49.66,1024.52,2026.98,2454.09,2392.64,2732.97,599.76,596.87,56.13,0000 0000 0000 0000 000000
2017-05-12 10:26:18,0.07,2.86,0.00,24.78,27.61,30.61,14.47,49.76,1024.47,2026.97,2452.80,2391.84,2732.00,599.84,597.02,56.18,0000 0000 0000 0000 000000
2017-05-12 10:31:19,0.09,2.87,0.00,24.83,27.62,30.65,14.49,49.76,1024.52,2026.97,2451.58,2390.96,2730.99,600.54,597.40,56.23,0000 0000 0000 0000 000000
2017-05-12 10:36:20,0.08,2.87,0.00,24.85,27.62,30.66,14.51,49.74,1024.46,2026.97,2450.48,2390.07,2730.02,599.95,596.80,56.28,0000 0000 0000 0000 000000
2017-05-12 10:41:22,0.09,2.88,0.00,24.88,27.62,30.68,14.44,49.58,1024.46,2026.96,2449.14,2389.17,2728.91,599.88,596.73,56.33,0000 0000 0000 0000 000000
2017-05-12 10:46:23,0.10,2.88,0.00,24.90,27.62,30.70,14.57,49.70,1024.45,2026.93,2447.61,2388.06,2727.67,600.32,597.11,56.38,0000 0000 0000 0000 000000
2017-05-12 10:51:24,0.09,2.89,0.00,24.92,27.62,30.71,14.49,49.68,1024.45,2026.92,2446.01,2387.06,2726.48,600.15,596.84,56.43,0000 0000 0000 0000 000000
2017-05-12 10:56:26,0.10,2.89,0.00,24.96,27.63,30.75,14.44,49.63,1024.44,2026.96,2444.63,2386.16,2725.54,599.74,596.40,56.48,0000 0000 0000 0000 000000
2017-05-12 11:01:27,0.08,2.90,0.00,25.00,27.65,30.76,14.48,49.55,1024.45,2026.92,2443.33,2385.21,2724.55,599.99,596.65,56.53,0000 0000 0000 0000 000000
2017-05-12 11:06:28,0.06,2.90,0.00,25.05,27.65,30.76,14.54,49.64,1024.45,2026.97,2442.26,2384.69,2723.77,600.39,596.77,56.58,0000 0000 0000 0000 000000
2017-05-12 11:11:29,0.05,2.90,0.00,25.06,27.65,30.76,14.50,49.53,1024.44,2026.92,2441.16,2383.99,2722.97,599.79,596.41,56.63,0000 0000 0000 0000 000000
2017-05-12 11:16:30,0.05,2.91,0.00,25.07,27.65,30.75,14.41,49.48,1024.44,2026.77,2440.34,2383.16,2722.11,600.20,596.66,56.68,0000 0000 0000 0000 000000
2017-05-12 11:21:31,0.03,2.91,0.00,25.06,27.65,30.74,14.39,49.45,1024.43,2026.33,2439.36,2382.47,2721.32,599.66,596.14,56.73,0000 0000 0000 0000 000000
2017-05-12 11:26:33,0.03,2.91,0.00,25.03,27.66,30.73,14.45,49.55,1024.44,2026.26,2438.61,2381.98,2720.74,599.85,596.35,56.79,0000 0000 0000 0000 000000
2017-05-12 11:31:34,0.08,2.91,0.00,25.03,27.66,30.74,14.57,49.50,1024.44,2026.19,2437.48,2381.20,2720.00,600.03,596.46,56.84,0000 0000 0000 0000 000000
2017-05-12 11:36:35,0.06,2.92,0.00,25.05,27.66,30.76,14.56,49.52,1024.43,2026.29,2436.38,2380.72,2719.18,600.27,596.77,56.89,0000 0000 0000 0000 000000
2017-05-12 11:41:37,0.05,2.92,0.00,25.08,27.65,30.77,14.49,49.63,1024.43,2026.19,2435.29,2380.01,2718.44,600.03,596.40,56.94,0000 0000 0000 0000 000000
2017-05-12 11:46:38,0.07,2.92,0.00,25.11,27.65,30.76,14.48,49.54,1024.43,2026.20,2434.17,2379.27,2717.77,599.92,596.41,56.99,0000 0000 0000 0000 000000
2017-05-12 11:51:40,0.02,2.93,0.00,25.12,27.65,30.76,14.53,49.44,1024.42,2026.09,2433.57,2378.92,2717.03,599.94,596.38,57.04,0000 0000 0000 0000 000000
2017-05-12 11:56:41,0.08,2.93,0.00,25.10,27.65,30.78,14.55,49.49,1024.32,2026.08,2432.58,2378.13,2716.37,600.15,596.48,57.09,0000 0000 0000 0000 000000
2017-05-12 12:01:43,0.07,2.93,0.00,25.03,27.65,30.74,14.50,49.66,1024.38,2026.11,2431.41,2377.54,2715.75,599.94,596.42,57.14,0000 0000 0000 0000 000000
2017-05-12 12:06:44,0.02,2.94,0.00,24.97,27.65,30.76,14.46,49.60,1024.29,2026.10,2430.96,2377.01,2715.03,600.23,596.80,57.19,0000 0000 0000 0000 000000
2017-05-12 12:11:45,0.06,2.94,0.00,24.91,27.65,30.74,14.48,49.66,1024.18,2026.06,2430.45,2376.57,2714.52,599.98,596.61,57.24,0000 0000 0000 0000 000000
2017-05-12 12:16:47,0.06,2.94,0.00,24.85,27.64,30.73,14.46,49.60,1024.08,2026.23,2429.23,2376.01,2713.97,599.99,596.63,57.29,0000 0000 0000 0000 000000
2017-05-12 12:21:48,0.04,2.94,0.00,24.81,27.62,30.71,14.44,49.58,1024.01,2026.10,2428.73,2375.48,2713.22,600.22,596.97,57.34,0000 0000 0000 0000 000000
2017-05-12 12:26:49,0.07,2.95,0.00,24.79,27.62,30.66,14.53,49.61,1023.98,2026.14,2427.38,2374.93,2712.53,600.10,596.83,57.39,0000 0000 0000 0000 000000
2017-05-12 12:31:50,0.07,2.95,0.00,24.79,27.60,30.61,14.49,49.48,1023.95,2026.25,2426.40,2374.11,2711.91,600.24,596.98,57.44,0000 0000 0000 0000 000000
2017-05-12 12:36:52,0.08,2.95,0.00,24.75,27.60,30.61,14.50,49.48,1023.95,2026.33,2425.29,2373.54,2711.07,599.97,596.77,57.49,0000 0000 0000 0000 000000
2017-05-12 12:41:53,0.07,2.96,0.00,24.73,27.57,30.59,14.52,49.55,1023.94,2026.40,2424.29,2372.98,2710.23,600.12,597.02,57.54,0000 0000 0000 0000 000000
2017-05-12 12:46:54,0.03,2.96,0.00,24.74,27.56,30.57,14.44,49.51,1023.95,2026.27,2423.68,2372.25,2709.73,599.99,596.81,57.59,0000 0000 0000 0000 000000
2017-05-12 12:51:55,0.12,2.97,0.00,24.73,27.55,30.57,14.49,49.61,1023.94,2026.71,2422.34,2371.76,2709.01,599.94,596.78,57.64,0000 0000 0000 0000 000000
2017-05-12 12:56:57,0.07,2.97,0.00,24.74,27.53,30.57,14.49,49.50,1023.94,2026.88,2421.54,2371.05,2708.26,599.73,596.54,57.70,0000 0000 0000 0000 000000